Hauptseite
METAR-TAF:

METAR-TAF

Flughäfen :

Flughafen Kufra

Kufra-Oasen, Libyen

Breite: 24-13N, Länge: 023-18E, Höhe: 417 m

METAR: fehlend

Zeit: 08:59 (06:59 UTC)

Prognose

Neuester Wetterbericht von vor 1 Stunde und 59 Minuten, um 05:00 UTC
Gültige Prognose vom 13 um 06 UTC bis 14 um 06 UTC
Wind 10 kt aus Nord
Sichtweite 10 km oder mehr
keine Wolken unter 1500 m und keine Kumulonimbus oder Gewitterwolken

TAF: HLKF 130500Z 1306/1406 36010KT CAVOK

Wetterbeobachtungen und Prognosen von mehr als 4000 Flughäfen (METAR und TAF Bericht).

Die verfügbaren Stationen werden durch gelbe und rote Markierungen auf der Karte dargestellt.

Führen Sie die Maus auf sie, um den Namen der Station zu sehen.

Darauf klicken, um die Beobachtung von Wetterbeobachtungen und Prognosen zu sehen.

Um die Karte zu ändern : klicken Sie auf den grünen Tasten mit einem schwarzen Kreuz Zum Vergrößern, auf den grünen Button mit einem Gedankenstrich zu verkleinern, oder auf die grünen Pfeile für benachbarte Karten.


METAR-TAF: